[[{"header":{"parameterUnit":"m.s-1","parameterCategory":1,"la1":30.2991,"la2":30.254,"lo1":-89.0895,"lo2":-89.0444,"dy":0.0017,"dx":0.0017,"nx":28,"ny":28,"refTime":"2023-07-27T21:00:00:Z","depth":0,"parameterNumber":2,"parameterNumberName":"U-component_of_WINDS"},"data":[0,0,0,0,0,0,0,0,0,0,0,0,0,0,0,0,0,0,0,0,0,0,0,0,0,0,0,0,0,0,0,0,0,0,0,0,0,0,0,0,0,0,0,0,0,0,0,0,0,0,0,0,0,0,0,0,0,0,-0.0734,-0.0734,0,-0.0742,-0.0742,-0.0743,-0.0734,-0.0734,-0.0734,-0.0733,-0.0743,-0.0744,-0.0744,0,0,0,0,0,0,0,0,0,0,0,0,0,-0.0712,-0.0713,-0.0734,-0.0734,-0.0734,-0.0742,-0.0742,-0.0743,-0.0734,-0.0734,-0.0733,-0.0733,-0.0743,-0.0744,-0.0744,0,0,0,0,0,0,0,0,0,0,0,0,0,-0.0721,-0.0713,-0.0734,-0.0731,-0.0731,-0.0742,-0.0742,-0.0743,-0.0734,-0.0734,-0.0733,-0.0733,-0.0743,-0.0744,-0.0744,-0.076,0,0,-0.0747,-0.0747,0,0,0,0,0,0,0,0,-0.0721,-0.0722,-0.0731,-0.0731,-0.0731,-0.0737,-0.0738,-0.0748,-0.0734,-0.0733,-0.0733,-0.0733,-0.0742,-0.0742,-0.0745,-0.076,-0.0761,-0.0747,-0.0748,-0.0748,-0.0748,0,0,0,0,0,0,0,-0.072,-0.0722,-0.0737,-0.0732,-0.0731,-0.073,-0.073,-0.074,-0.074,-0.0733,-0.0733,-0.0734,-0.0741,-0.0744,-0.0745,-0.0761,-0.0747,-0.0748,-0.0748,-0.0749,-0.0789,-0.0789,0,0,0,0,0,0,-0.072,-0.0721,-0.0737,-0.0738,-0.0725,-0.073,-0.0731,-0.0735,-0.074,-0.074,-0.0734,-0.0733,-0.0743,-0.0744,-0.0746,-0.0764,-0.0748,-0.0749,-0.0749,-0.0788,-0.0789,-0.0789,0,0,0,0,0,0,-0.0719,-0.0721,-0.0737,-0.0729,-0.0731,-0.0731,-0.0736,-0.0736,-0.0739,-0.074,-0.0741,-0.0737,-0.0743,-0.0744,-0.0756,-0.0765,-0.0749,-0.075,-0.0787,-0.0788,-0.0789,-0.0802,0,0,0,0,0,0,-0.0719,-0.0721,-0.0727,-0.0729,-0.0732,-0.0747,-0.0737,-0.0736,-0.074,-0.0739,-0.0743,-0.0744,-0.0742,-0.0755,-0.0757,-0.0765,-0.0751,-0.0787,-0.0788,-0.0789,-0.0801,-0.0803,-0.0805,0,0,0,0,0,-0.0718,-0.073,-0.0727,-0.0729,-0.0739,-0.0748,-0.0749,-0.0747,-0.0741,-0.0747,-0.0748,-0.0744,-0.0763,-0.0756,-0.0758,-0.0767,-0.0786,-0.0788,-0.0789,-0.08,-0.0802,-0.0805,0,0,0,0,0,0,-0.073,-0.0731,-0.0727,-0.0741,-0.0744,-0.0746,-0.0754,-0.075,-0.0756,-0.0754,-0.0752,-0.0753,-0.0766,-0.0767,-0.076,-0.0782,-0.0774,-0.0775,-0.0781,-0.0784,-0.0786,-0.0786,-0.0751,0,0,0,0,0,-0.0734,-0.074,-0.0741,-0.0753,-0.0755,-0.0754,-0.0758,-0.0756,-0.0759,-0.0761,-0.0763,-0.0767,-0.0774,-0.0778,-0.0785,-0.08,-0.0801,-0.0807,-0.0809,-0.0811,-0.0813,-0.0822,-0.0824,-0.0793,-0.0793,-0.0793,0,0,-0.0742,-0.0744,-0.0748,-0.0755,-0.0758,-0.0765,-0.0755,-0.0764,-0.0769,-0.0762,-0.0774,-0.0775,-0.0779,-0.0793,-0.0799,-0.0795,-0.0821,-0.0812,-0.0814,-0.0815,-0.0823,-0.0826,-0.0829,-0.0794,-0.0794,-0.0794,0,0,-0.0763,-0.0764,-0.0774,-0.0776,-0.078,-0.0779,-0.0781,-0.0783,-0.0784,-0.0795,-0.079,-0.0796,-0.0808,-0.0812,-0.0815,-0.0835,-0.0831,-0.0837,-0.0849,-0.0857,-0.0859,-0.0862,-0.087,-0.0873,-0.0838,-0.0838,-0.0838,0,-0.0774,-0.0784,-0.078,-0.0789,-0.0792,-0.0785,-0.0796,-0.0798,-0.0803,-0.0806,-0.0801,-0.0815,-0.0818,-0.0832,-0.0837,-0.0839,-0.0843,-0.0837,-0.0859,-0.0861,-0.0863,-0.0871,-0.0874,-0.0839,-0.0839,-0.0839,-0.0839,0,-0.0798,-0.0805,-0.0813,-0.0818,-0.0822,-0.0832,-0.0829,-0.0834,-0.0831,-0.0831,-0.0842,-0.0844,-0.0851,-0.0854,-0.0851,-0.0868,-0.0865,-0.0859,-0.0851,-0.0867,-0.0875,-0.0877,-0.084,-0.084,-0.084,-0.084,0,0,-0.0828,-0.0829,-0.0832,-0.0835,-0.0837,-0.0843,-0.0852,-0.0858,-0.0862,-0.0865,-0.0874,-0.0883,-0.0878,-0.0881,-0.0879,-0.0886,-0.0902,-0.0879,-0.0879,-0.0885,-0.0922,-0.0927,-0.0931,-0.0899,-0.09,-0.09,-0.0922,0,-0.085,-0.0865,-0.0861,-0.0877,-0.0884,-0.0876,-0.0884,-0.0886,-0.0886,-0.0892,-0.0891,-0.0898,-0.089,-0.0892,-0.0899,-0.0899,-0.091,-0.0897,-0.0908,-0.0908,-0.0909,-0.0935,-0.0941,-0.0962,-0.0925,-0.0925,-0.0925,0,-0.0877,-0.0881,-0.0898,-0.0898,-0.0901,-0.0908,-0.0913,-0.0919,-0.0921,-0.092,-0.0923,-0.0919,-0.0928,-0.0918,-0.0931,-0.0922,-0.0926,-0.0927,-0.0927,-0.093,-0.0919,-0.094,-0.0968,-0.0972,-0.093,-0.0929,-0.0929,0,-0.09,-0.0909,-0.092,-0.0921,-0.0922,-0.0927,-0.0928,-0.093,-0.0933,-0.0937,-0.094,-0.0945,-0.0948,-0.0953,-0.095,-0.0943,-0.0964,-0.0953,-0.0964,-0.0964,-0.0971,-0.0971,-0.1002,-0.097,-0.097,-0.097,-0.097,0,-0.0925,-0.0936,-0.093,-0.0937,-0.0948,-0.0943,-0.0955,-0.0954,-0.0955,-0.0963,-0.0955,-0.0962,-0.0957,-0.0964,-0.0961,-0.0973,-0.0974,-0.0974,-0.0974,-0.0976,-0.0976,-0.098,-0.098,-0.0971,-0.0971,-0.0971,-0.097,0,-0.0953,-0.0949,-0.0961,-0.096,-0.096,-0.0969,-0.0968,-0.0975,-0.0972,-0.0982,-0.0983,-0.0981,-0.0988,-0.0985,-0.0992,-0.0991,-0.1006,-0.1003,-0.1006,-0.1005,-0.1017,-0.1017,-0.1054,-0.1059,-0.1022,-0.1022,-0.1022,0,-0.0971,-0.0979,-0.0979,-0.0982,-0.0983,-0.099,-0.0993,-0.0987,-0.0991,-0.0993,-0.1,-0.1006,-0.1011,-0.1023,-0.1022,-0.1028,-0.1026,-0.1038,-0.1027,-0.1029,-0.1028,-0.1028,-0.103,-0.1041,-0.1042,-0.1042,-0.1042,0,-0.1004,-0.1001,-0.1006,-0.101,-0.1014,-0.1017,-0.102,-0.1023,-0.1017,-0.1022,-0.1029,-0.1032,-0.1039,-0.1046,-0.1051,-0.1052,-0.1047,-0.1045,-0.1048,-0.1052,-0.1054,-0.1055,-0.1014,-0.1045,-0.1045,-0.1045,-0.1044,-0.1044,-0.1029,-0.1035,-0.1036,-0.1042,-0.1042,-0.1044,-0.1051,-0.1049,-0.1054,-0.1059,-0.1055,-0.1063,-0.1065,-0.107,-0.1072,-0.1078,-0.1074,-0.1078,-0.1079,-0.1081,-0.1083,-0.1051,-0.1079,-0.1079,-0.1079,-0.1078,-0.1078,0,-0.1062,-0.1062,-0.1067,-0.107,-0.1074,-0.1067,-0.1069,-0.1073,-0.1081,-0.1082,-0.1086,-0.1094,-0.11,-0.1098,-0.1104,-0.1109,-0.1107,-0.1111,-0.1112,-0.1112,-0.1086,-0.1084,-0.1113,-0.1113,-0.1113,-0.1113,-0.1113,-0.1113,-0.1081,-0.1092,-0.1089,-0.11,-0.11,-0.1107,-0.1109,-0.1111,-0.1112,-0.1121,-0.1125,-0.1124,-0.1124,-0.1129,-0.1134,-0.1134,-0.1137,-0.1142,-0.1141,-0.1118,-0.1114,-0.1111,-0.1109,-0.1143,-0.1143,-0.1167,-0.1167,-0.1167]},{"header":{"parameterUnit":"m.s-1","parameterCategory":1,"la1":30.2991,"la2":30.254,"lo1":-89.0895,"lo2":-89.0444,"dy":0.0017,"dx":0.0017,"nx":28,"ny":28,"refTime":"2023-07-27T21:00:00:Z","depth":0,"parameterNumber":3,"parameterNumberName":"V-component_of_WINDS"},"data":[0,0,0,0,0,0,0,0,0,0,0,0,0,0,0,0,0,0,0,0,0,0,0,0,0,0,0,0,0,0,0,0,0,0,0,0,0,0,0,0,0,0,0,0,0,0,0,0,0,0,0,0,0,0,0,0,0,0,-1.7508,-1.7508,0,-1.7513,-1.7513,-1.7513,-1.7503,-1.7503,-1.7502,-1.7502,-1.7504,-1.7504,-1.7505,0,0,0,0,0,0,0,0,0,0,0,0,0,-1.749,-1.749,-1.7508,-1.7508,-1.7508,-1.7513,-1.7513,-1.7513,-1.7503,-1.7503,-1.7502,-1.7502,-1.7504,-1.7504,-1.7505,0,0,0,0,0,0,0,0,0,0,0,0,0,-1.7496,-1.749,-1.7508,-1.7504,-1.7504,-1.7513,-1.7513,-1.7513,-1.7503,-1.7503,-1.7502,-1.7502,-1.7504,-1.7504,-1.7505,-1.7517,0,0,-1.7506,-1.7507,0,0,0,0,0,0,0,0,-1.7496,-1.7497,-1.7505,-1.7504,-1.7504,-1.7507,-1.7507,-1.7514,-1.7503,-1.7503,-1.7502,-1.7502,-1.7505,-1.7506,-1.7507,-1.7517,-1.7517,-1.7506,-1.7507,-1.7507,-1.7507,0,0,0,0,0,0,0,-1.7496,-1.7497,-1.751,-1.7505,-1.7504,-1.7502,-1.7502,-1.7508,-1.7507,-1.7503,-1.7503,-1.7503,-1.7505,-1.7507,-1.7507,-1.7517,-1.7506,-1.7507,-1.7507,-1.7507,-1.754,-1.754,0,0,0,0,0,0,-1.7496,-1.7496,-1.751,-1.751,-1.7499,-1.7502,-1.7503,-1.7506,-1.7507,-1.7506,-1.7504,-1.7503,-1.7506,-1.7507,-1.7507,-1.7523,-1.7507,-1.7507,-1.7508,-1.7539,-1.754,-1.754,0,0,0,0,0,0,-1.7496,-1.7497,-1.751,-1.7503,-1.7504,-1.7503,-1.7507,-1.7507,-1.7509,-1.7507,-1.7507,-1.7506,-1.7506,-1.7507,-1.7515,-1.7523,-1.7508,-1.7508,-1.7538,-1.7539,-1.754,-1.7554,0,0,0,0,0,0,-1.7495,-1.7497,-1.7502,-1.7503,-1.7505,-1.7518,-1.7508,-1.7507,-1.751,-1.7509,-1.7509,-1.7509,-1.7506,-1.7515,-1.7516,-1.7524,-1.7508,-1.7538,-1.7539,-1.754,-1.7553,-1.7556,-1.7558,0,0,0,0,0,-1.7494,-1.7505,-1.7502,-1.7504,-1.7511,-1.7518,-1.7519,-1.7516,-1.7511,-1.7515,-1.7515,-1.7509,-1.7522,-1.7516,-1.7517,-1.7525,-1.7537,-1.7538,-1.754,-1.7552,-1.7555,-1.7558,0,0,0,0,0,0,-1.7502,-1.7505,-1.7502,-1.7513,-1.7516,-1.7517,-1.7523,-1.7519,-1.7523,-1.7521,-1.7517,-1.7517,-1.7527,-1.7526,-1.7519,-1.7538,-1.7529,-1.753,-1.7538,-1.7541,-1.7543,-1.7543,-1.7509,0,0,0,0,0,-1.7506,-1.7512,-1.7514,-1.7523,-1.7525,-1.7524,-1.7527,-1.7525,-1.7527,-1.7528,-1.7527,-1.7529,-1.7534,-1.7537,-1.7541,-1.7553,-1.7554,-1.7559,-1.7562,-1.7563,-1.7565,-1.7573,-1.7576,-1.7544,-1.7544,-1.7544,0,0,-1.7512,-1.7514,-1.7518,-1.7525,-1.7527,-1.7534,-1.7525,-1.7532,-1.7537,-1.7528,-1.7537,-1.7537,-1.7539,-1.755,-1.7555,-1.755,-1.7574,-1.7565,-1.7566,-1.7567,-1.7575,-1.7578,-1.758,-1.7545,-1.7545,-1.7545,0,0,-1.7528,-1.753,-1.7539,-1.7542,-1.7545,-1.7545,-1.7547,-1.7549,-1.7549,-1.7559,-1.7553,-1.7559,-1.7567,-1.7569,-1.7571,-1.759,-1.7585,-1.7591,-1.7603,-1.7611,-1.7613,-1.7616,-1.7624,-1.7627,-1.7593,-1.7593,-1.7593,0,-1.7535,-1.7546,-1.7544,-1.7552,-1.7556,-1.755,-1.756,-1.7562,-1.7566,-1.7569,-1.7564,-1.7576,-1.7576,-1.7588,-1.7593,-1.7595,-1.7598,-1.7591,-1.7613,-1.7616,-1.7618,-1.7625,-1.7628,-1.7594,-1.7593,-1.7593,-1.7593,0,-1.7555,-1.7563,-1.757,-1.7577,-1.7581,-1.759,-1.7589,-1.7593,-1.7591,-1.7591,-1.7602,-1.7603,-1.7608,-1.761,-1.7607,-1.7623,-1.762,-1.7614,-1.7605,-1.7622,-1.7629,-1.7632,-1.7595,-1.7594,-1.7594,-1.7594,0,0,-1.7575,-1.7582,-1.7585,-1.7589,-1.7593,-1.7599,-1.7608,-1.7615,-1.7619,-1.7623,-1.7631,-1.7639,-1.7634,-1.7636,-1.7634,-1.7641,-1.7658,-1.7634,-1.7634,-1.764,-1.7677,-1.7682,-1.7685,-1.7655,-1.7655,-1.7655,-1.7677,0,-1.7592,-1.7609,-1.7608,-1.7624,-1.7632,-1.7627,-1.7635,-1.7639,-1.764,-1.7646,-1.7646,-1.7653,-1.7645,-1.7647,-1.7654,-1.7654,-1.7665,-1.7653,-1.7662,-1.7663,-1.7663,-1.7689,-1.7694,-1.7714,-1.768,-1.768,-1.7681,0,-1.7613,-1.762,-1.7637,-1.7642,-1.7646,-1.7653,-1.766,-1.7666,-1.7671,-1.7671,-1.7675,-1.7672,-1.7681,-1.7672,-1.7685,-1.7677,-1.7681,-1.7682,-1.7682,-1.7684,-1.7673,-1.7692,-1.772,-1.7724,-1.7685,-1.7684,-1.7684,0,-1.7627,-1.764,-1.7653,-1.7656,-1.7662,-1.7668,-1.7671,-1.7675,-1.768,-1.7686,-1.7689,-1.7695,-1.7699,-1.7704,-1.7703,-1.7696,-1.7717,-1.7707,-1.7718,-1.7718,-1.7723,-1.7723,-1.7753,-1.7724,-1.7724,-1.7724,-1.7724,0,-1.7646,-1.7657,-1.766,-1.7667,-1.768,-1.7679,-1.7691,-1.7693,-1.7698,-1.7706,-1.7702,-1.7709,-1.7707,-1.7715,-1.7713,-1.7726,-1.7727,-1.7728,-1.7727,-1.7729,-1.7729,-1.7731,-1.773,-1.7724,-1.7724,-1.7724,-1.7724,0,-1.7664,-1.7666,-1.768,-1.7686,-1.7688,-1.7697,-1.7702,-1.7709,-1.7711,-1.7721,-1.7723,-1.7725,-1.7734,-1.7733,-1.7743,-1.7742,-1.7758,-1.7755,-1.7757,-1.7757,-1.7768,-1.7767,-1.7802,-1.7808,-1.7773,-1.7774,-1.7774,0,-1.7676,-1.7685,-1.7693,-1.7699,-1.7703,-1.7712,-1.7718,-1.7718,-1.7724,-1.7731,-1.7738,-1.7747,-1.7754,-1.7768,-1.777,-1.7778,-1.7776,-1.7788,-1.7777,-1.7779,-1.7778,-1.7778,-1.7779,-1.779,-1.779,-1.7791,-1.7791,0,-1.7699,-1.77,-1.7709,-1.7719,-1.7726,-1.7733,-1.774,-1.7745,-1.7746,-1.7753,-1.7763,-1.7769,-1.778,-1.7789,-1.7797,-1.7799,-1.7796,-1.7794,-1.7798,-1.7799,-1.7801,-1.7802,-1.7764,-1.7794,-1.7793,-1.7793,-1.7793,-1.7793,-1.7715,-1.7723,-1.7731,-1.7742,-1.7747,-1.7754,-1.7763,-1.7766,-1.7775,-1.7785,-1.7784,-1.7796,-1.7802,-1.7812,-1.7815,-1.7824,-1.782,-1.7824,-1.7825,-1.7827,-1.7829,-1.7799,-1.7826,-1.7825,-1.7825,-1.7825,-1.7825,0,-1.7738,-1.7744,-1.7753,-1.7764,-1.7773,-1.777,-1.7778,-1.7785,-1.7796,-1.7803,-1.7811,-1.7823,-1.7833,-1.7836,-1.7845,-1.7852,-1.7851,-1.7855,-1.7854,-1.7855,-1.7831,-1.7829,-1.7856,-1.7856,-1.7856,-1.7856,-1.7856,-1.7856,-1.7751,-1.7766,-1.7769,-1.7787,-1.7792,-1.7805,-1.781,-1.7816,-1.7822,-1.7837,-1.7845,-1.7848,-1.7853,-1.7864,-1.7872,-1.7873,-1.7877,-1.7882,-1.7882,-1.786,-1.7857,-1.7854,-1.7851,-1.7883,-1.7883,-1.7906,-1.7906,-1.7906]}]]